Easton, MD

2:03 AM EDT on July 26, 2017 (GMT -0400)
Easton / Newnam

Weather History for KESN - May, 2013

Change the Weather History Date:

Saturday, May 25, 2013

  Actual Average Record
Temperature  
Mean Temperature 56 °F -  
Max Temperature 66 °F 75 °F 89 °F (1964)
Min Temperature 46 °F 56 °F 37 °F (1956)
Degree Days  
Heating Degree Days 9    
Growing Degree Days 6 (Base 50)    
Moisture  
Dew Point 39 °F    
Average Humidity 59    
Maximum Humidity 71    
Minimum Humidity 40    
Precipitation  
Precipitation 0.00 in - - ()
Sea Level Pressure  
Sea Level Pressure 30.13 in    
Wind  
Wind Speed 15 mph (NNW)    
Max Wind Speed 22 mph    
Max Gust Speed 32 mph    
Visibility 10 miles    
Events      
Averages and records for this station are not official NWS values.
T = Trace of Precipitation, MM = Missing Value Source: NWS Daily Summary

Daily Weather History Graph

Daily Weather History Graph

Search for Another Location

Airport or City:

Trip Planner

Search our weather history database for the weather conditions in past years. The results will help you decide how hot, cold, wet, or windy it might be!

Date:

Astronomy

May. 25, 2013 Rise Set
Actual Time 5:44 AM EDT 8:18 PM EDT
Civil Twilight 5:13 AM EDT 8:49 PM EDT
Nautical Twilight 4:35 AM EDT 9:27 PM EDT
Astronomical Twilight 3:52 AM EDT 10:10 PM EDT
Moon 9:04 PM EDT (5/25) 6:08 AM EDT (5/25)
Length of Visible Light 15h 35m
Length of Day
14h 34m
Full, 100% of the Moon is Illuminated
May 25
Full
May 31
Last Quarter
Jun 8
New
Jun 16
First Quarter
Jun 23
Full

Hourly Weather History & Observations

Time (EDT) Temp. Windchill Dew Point Humidity Pressure Visibility Wind Dir Wind Speed Gust Speed Precip Events Conditions
12:12 AM 50.5 °F - 40.5 °F 68% 30.13 in 10.0 mi North 11.5 mph 27.6 mph N/A   Mostly Cloudy
12:32 AM 50.5 °F - 39.6 °F 66% 30.13 in 10.0 mi North 13.8 mph 24.2 mph N/A   Scattered Clouds
12:52 AM 50.0 °F - 39.2 °F 66% 30.13 in 10.0 mi NNW 13.8 mph 20.7 mph N/A   Scattered Clouds
1:12 AM 49.8 °F - 38.8 °F 66% 30.13 in 10.0 mi NNW 16.1 mph 23.0 mph N/A   Scattered Clouds
1:32 AM 49.3 °F - 39.4 °F 69% 30.13 in 10.0 mi North 9.2 mph 21.9 mph N/A   Scattered Clouds
1:52 AM 49.5 °F - 38.5 °F 66% 30.12 in 10.0 mi NNW 16.1 mph 19.6 mph N/A   Scattered Clouds
2:12 AM 50.0 °F - 37.9 °F 63% 30.12 in 10.0 mi NNW 15.0 mph 19.6 mph N/A   Mostly Cloudy
2:32 AM 49.5 °F - 38.1 °F 65% 30.12 in 10.0 mi NNW 15.0 mph 18.4 mph N/A   Scattered Clouds
2:52 AM 49.1 °F - 37.6 °F 64% 30.11 in 10.0 mi NNW 18.4 mph 23.0 mph N/A   Scattered Clouds
3:12 AM 48.7 °F - 36.9 °F 64% 30.11 in 10.0 mi NNW 16.1 mph 25.3 mph N/A   Scattered Clouds
3:32 AM 48.4 °F - 36.5 °F 64% 30.11 in 10.0 mi NNW 20.7 mph 27.6 mph N/A   Scattered Clouds
3:52 AM 48.2 °F - 36.5 °F 64% 30.12 in 10.0 mi NNW 17.3 mph 25.3 mph N/A   Clear
4:12 AM 47.5 °F - 36.7 °F 66% 30.12 in 10.0 mi NNW 20.7 mph 26.5 mph N/A   Clear
4:32 AM 47.3 °F - 36.5 °F 66% 30.13 in 10.0 mi NNW 16.1 mph 28.8 mph N/A   Clear
4:52 AM 46.9 °F - 36.9 °F 68% 30.13 in 10.0 mi NNW 12.7 mph 23.0 mph N/A   Clear
5:12 AM 46.9 °F - 37.4 °F 69% 30.13 in 10.0 mi NNW 16.1 mph 23.0 mph N/A   Clear
5:32 AM 46.9 °F - 37.4 °F 69% 30.13 in 10.0 mi NNW 17.3 mph 25.3 mph N/A   Clear
5:52 AM 46.8 °F - 37.6 °F 70% 30.13 in 10.0 mi NNW 21.9 mph 26.5 mph N/A   Clear
5:53 AM 46.4 °F 38.7 °F 37.4 °F 71% 30.13 in 10.0 mi NNW 20.7 mph 29.9 mph N/A   Clear
6:12 AM 47.5 °F - 37.8 °F 69% 30.13 in 10.0 mi NNW 15.0 mph 26.5 mph N/A   Clear
6:32 AM 48.2 °F - 38.1 °F 68% 30.13 in 10.0 mi NNW 15.0 mph 26.5 mph N/A   Clear
6:52 AM 49.1 °F - 38.5 °F 67% 30.14 in 10.0 mi NNW 16.1 mph 28.8 mph N/A   Clear
6:53 AM 48.2 °F - 39.2 °F 71% 30.14 in 10.0 mi NW 20.7 mph 28.8 mph N/A   Clear
7:12 AM 49.5 °F - 38.8 °F 67% 30.14 in 10.0 mi NNW 20.7 mph 26.5 mph N/A   Clear
7:32 AM 50.0 °F - 38.5 °F 65% 30.14 in 10.0 mi NNW 21.9 mph 32.2 mph N/A   Clear
7:42 AM 50.2 °F - 38.5 °F 64% 30.15 in 10.0 mi NNW 21.9 mph 27.6 mph N/A   Clear
7:53 AM 50.0 °F - 39.2 °F 66% 30.15 in 10.0 mi NNW 20.7 mph 28.8 mph N/A   Clear
8:50 AM 53.6 °F - 39.2 °F 58% 30.16 in 10.0 mi NW 20.7 mph 28.8 mph N/A   Clear
9:55 AM 55.4 °F - 39.2 °F 54% 30.15 in 10.0 mi NW 20.7 mph 28.8 mph N/A   Partly Cloudy
10:50 AM 57.2 °F - 39.2 °F 51% 30.14 in 10.0 mi NW 18.4 mph 29.9 mph N/A   Scattered Clouds
11:58 AM 59.0 °F - 39.2 °F 48% 30.14 in 10.0 mi NW 18.4 mph 27.6 mph N/A   Scattered Clouds
12:50 PM 60.8 °F - 39.2 °F 45% 30.13 in 10.0 mi NW 18.4 mph 29.9 mph N/A   Scattered Clouds
1:53 PM 62.6 °F - 41.0 °F 45% 30.12 in 10.0 mi SE 17.3 mph 28.8 mph N/A   Scattered Clouds
2:52 PM 64.4 °F - 39.2 °F 40% 30.12 in 10.0 mi WNW 17.3 mph 25.3 mph N/A   Scattered Clouds
3:51 PM 66.2 °F - 41.0 °F 40% 30.11 in 10.0 mi NW 9.2 mph 26.5 mph N/A   Scattered Clouds
4:50 PM 64.4 °F - 39.2 °F 40% 30.10 in 10.0 mi NW 15.0 mph 21.9 mph N/A   Scattered Clouds
5:50 PM 64.4 °F - 39.2 °F 40% 30.10 in 10.0 mi NW 16.1 mph 21.9 mph N/A   Scattered Clouds
6:50 PM 64.4 °F - 39.2 °F 40% 30.10 in 10.0 mi WNW 9.2 mph 19.6 mph N/A   Scattered Clouds
7:50 PM 62.6 °F - 39.2 °F 42% 30.11 in 10.0 mi NW 8.1 mph - N/A   Partly Cloudy
8:51 PM 59.0 °F - 39.2 °F 48% 30.11 in 10.0 mi WNW 6.9 mph - N/A   Clear
10:54 PM 59.4 °F - 41.2 °F 51% 30.14 in 10.0 mi NW 6.9 mph - N/A   Clear
11:14 PM 59.0 °F - 39.6 °F 49% 30.15 in 10.0 mi NW 11.5 mph 16.1 mph N/A   Clear
11:34 PM 58.3 °F - 39.2 °F 49% 30.15 in 10.0 mi NNW 8.1 mph - N/A   Clear
11:54 PM 57.6 °F - 39.7 °F 51% 30.16 in 10.0 mi NNW 9.2 mph - N/A   Clear